Time,TemperatureF,DewpointF,PressureIn,WindDirection,WindDirectionDegrees,WindSpeedMPH,WindSpeedGustMPH,Humidity,HourlyPrecipIn,Conditions,Clouds,dailyrainin,SoftwareType,DateUTC
2013-03-13 00:02:00,36.0,26.0,30.29,SSE,162,2.0,6.0,66,-99.99,,,-99.99,,2013-03-13 06:02:00,
2013-03-13 00:12:00,36.0,26.0,30.29,SSE,162,2.0,6.0,66,-99.99,,,-99.99,,2013-03-13 06:12:00,
2013-03-13 00:22:00,36.0,25.0,30.29,SSE,152,0.0,0.0,64,-99.99,,,-99.99,,2013-03-13 06:22:00,
2013-03-13 00:32:00,34.0,25.0,30.30,South,185,0.0,4.0,69,-99.99,,,-99.99,,2013-03-13 06:32:00,
2013-03-13 00:42:00,34.0,25.0,30.30,South,185,0.0,4.0,69,-99.99,,,-99.99,,2013-03-13 06:42:00,
2013-03-13 00:52:00,34.0,24.0,30.29,SSE,165,0.0,1.0,67,-99.99,,,-99.99,,2013-03-13 06:52:00,
2013-03-13 01:02:00,34.0,25.0,30.29,SE,127,1.0,7.0,70,-99.99,,,-99.99,,2013-03-13 07:02:00,
2013-03-13 01:12:00,34.0,25.0,30.29,SE,127,1.0,7.0,70,-99.99,,,-99.99,,2013-03-13 07:12:00,
2013-03-13 01:22:00,34.0,26.0,30.29,SE,138,2.0,5.0,71,-99.99,,,-99.99,,2013-03-13 07:22:00,
2013-03-13 01:32:00,34.0,26.0,30.29,SSE,151,3.0,7.0,73,-99.99,,,-99.99,,2013-03-13 07:32:00,
2013-03-13 01:42:00,34.0,26.0,30.29,SSE,151,3.0,7.0,73,-99.99,,,-99.99,,2013-03-13 07:42:00,
2013-03-13 01:52:00,34.0,27.0,30.30,ENE,59,0.0,3.0,74,-99.99,,,-99.99,,2013-03-13 07:52:00,
2013-03-13 02:03:00,34.0,27.0,30.30,SSE,160,2.0,5.0,76,-99.99,,,-99.99,,2013-03-13 08:03:00,
2013-03-13 02:12:00,34.0,27.0,30.30,SSE,160,2.0,5.0,76,-99.99,,,-99.99,,2013-03-13 08:12:00,
2013-03-13 02:22:00,34.0,27.0,30.30,SSE,163,2.0,4.0,75,-99.99,,,-99.99,,2013-03-13 08:22:00,
2013-03-13 02:32:00,33.0,27.0,30.31,NE,34,0.0,1.0,77,-99.99,,,-99.99,,2013-03-13 08:32:00,
2013-03-13 02:42:00,33.0,27.0,30.31,NE,34,0.0,1.0,77,-99.99,,,-99.99,,2013-03-13 08:42:00,
2013-03-13 02:53:00,33.0,27.0,30.31,SSE,164,3.0,4.0,77,-99.99,,,-99.99,,2013-03-13 08:53:00,
2013-03-13 03:02:00,34.0,27.0,30.31,SSE,168,3.0,5.0,76,-99.99,,,-99.99,,2013-03-13 09:02:00,
2013-03-13 03:12:00,34.0,27.0,30.31,SSE,168,3.0,5.0,76,-99.99,,,-99.99,,2013-03-13 09:12:00,
2013-03-13 03:22:00,35.0,28.0,30.31,SSE,165,2.0,4.0,75,-99.99,,,-99.99,,2013-03-13 09:22:00,
2013-03-13 03:32:00,35.0,28.0,30.31,SSE,156,1.0,3.0,76,-99.99,,,-99.99,,2013-03-13 09:32:00,
2013-03-13 03:42:00,35.0,28.0,30.31,SSE,156,1.0,3.0,76,-99.99,,,-99.99,,2013-03-13 09:42:00,
2013-03-13 03:52:00,33.0,27.0,30.31,NNW,332,0.0,2.0,78,-99.99,,,-99.99,,2013-03-13 09:52:00,
2013-03-13 04:01:00,33.0,27.0,30.31,NNW,334,0.0,0.0,79,-99.99,,,-99.99,,2013-03-13 10:01:00,
2013-03-13 04:11:00,33.0,27.0,30.31,NNW,334,0.0,0.0,79,-99.99,,,-99.99,,2013-03-13 10:11:00,
2013-03-13 04:22:00,33.0,27.0,30.30,ESE,117,0.0,1.0,79,-99.99,,,-99.99,,2013-03-13 10:22:00,
2013-03-13 04:32:00,33.0,28.0,30.30,SE,128,0.0,1.0,80,-99.99,,,-99.99,,2013-03-13 10:32:00,
2013-03-13 04:42:00,33.0,28.0,30.30,SE,128,0.0,1.0,80,-99.99,,,-99.99,,2013-03-13 10:42:00,
2013-03-13 04:52:00,33.0,27.0,30.30,SE,133,1.0,3.0,79,-99.99,,,-99.99,,2013-03-13 10:52:00,
2013-03-13 05:02:00,35.0,28.0,30.30,SSE,147,1.0,3.0,75,-99.99,,,-99.99,,2013-03-13 11:02:00,
2013-03-13 05:12:00,35.0,28.0,30.30,SSE,147,1.0,3.0,75,-99.99,,,-99.99,,2013-03-13 11:12:00,
2013-03-13 05:22:00,34.0,27.0,30.30,East,84,0.0,5.0,76,-99.99,,,-99.99,,2013-03-13 11:22:00,
2013-03-13 05:32:00,33.0,27.0,30.30,South,185,0.0,5.0,78,-99.99,,,-99.99,,2013-03-13 11:32:00,
2013-03-13 05:42:00,33.0,27.0,30.30,South,185,0.0,5.0,78,-99.99,,,-99.99,,2013-03-13 11:42:00,
2013-03-13 05:52:00,32.0,27.0,30.31,SSW,211,0.0,4.0,80,-99.99,,,-99.99,,2013-03-13 11:52:00,
2013-03-13 06:02:00,32.0,27.0,30.31,SE,132,0.0,2.0,80,-99.99,,,-99.99,,2013-03-13 12:02:00,
2013-03-13 06:12:00,32.0,27.0,30.31,SE,132,0.0,2.0,80,-99.99,,,-99.99,,2013-03-13 12:12:00,
2013-03-13 06:22:00,33.0,27.0,30.31,SSE,161,1.0,3.0,78,-99.99,,,-99.99,,2013-03-13 12:22:00,
2013-03-13 06:32:00,33.0,27.0,30.31,South,180,1.0,4.0,77,-99.99,,,-99.99,,2013-03-13 12:32:00,
2013-03-13 06:42:00,33.0,27.0,30.31,South,180,1.0,4.0,77,-99.99,,,-99.99,,2013-03-13 12:42:00,
2013-03-13 06:53:00,33.0,27.0,30.32,NE,35,0.0,1.0,78,-99.99,,,-99.99,,2013-03-13 12:53:00,
2013-03-13 07:02:00,32.0,27.0,30.32,ENE,74,0.0,2.0,80,-99.99,,,-99.99,,2013-03-13 13:02:00,
2013-03-13 07:11:00,32.0,27.0,30.32,ENE,74,0.0,2.0,80,-99.99,,,-99.99,,2013-03-13 13:11:00,
2013-03-13 07:22:00,32.0,27.0,30.32,SSE,157,0.0,3.0,82,-99.99,,,-99.99,,2013-03-13 13:22:00,
2013-03-13 07:32:00,31.0,26.0,30.32,NNE,24,0.0,3.0,82,-99.99,,,-99.99,,2013-03-13 13:32:00,
2013-03-13 07:42:00,31.0,26.0,30.32,NNE,24,0.0,3.0,82,-99.99,,,-99.99,,2013-03-13 13:42:00,
2013-03-13 07:52:00,31.0,27.0,30.32,NNE,26,0.0,2.0,85,-99.99,,,-99.99,,2013-03-13 13:52:00,
2013-03-13 08:02:00,32.0,28.0,30.32,SE,142,1.0,5.0,84,-99.99,,,-99.99,,2013-03-13 14:02:00,
2013-03-13 08:12:00,32.0,28.0,30.32,SE,142,1.0,5.0,84,-99.99,,,-99.99,,2013-03-13 14:12:00,
2013-03-13 08:21:00,33.0,28.0,30.32,South,176,2.0,5.0,81,-99.99,,,-99.99,,2013-03-13 14:21:00,
2013-03-13 08:33:00,33.0,28.0,30.34,SSE,167,1.0,3.0,80,-99.99,,,-99.99,,2013-03-13 14:33:00,
2013-03-13 08:42:00,33.0,28.0,30.34,SSE,167,1.0,3.0,80,-99.99,,,-99.99,,2013-03-13 14:42:00,
2013-03-13 08:52:00,33.0,27.0,30.34,SSE,148,1.0,4.0,79,-99.99,,,-99.99,,2013-03-13 14:52:00,
2013-03-13 09:02:00,34.0,28.0,30.35,SE,128,0.0,3.0,78,-99.99,,,-99.99,,2013-03-13 15:02:00,
2013-03-13 09:12:00,34.0,28.0,30.35,SE,128,0.0,3.0,78,-99.99,,,-99.99,,2013-03-13 15:12:00,
2013-03-13 09:22:00,33.0,27.0,30.35,SSW,199,0.0,3.0,78,-99.99,,,-99.99,,2013-03-13 15:22:00,
2013-03-13 09:32:00,33.0,27.0,30.35,SSE,167,0.0,0.0,79,-99.99,,,-99.99,,2013-03-13 15:32:00,
2013-03-13 09:42:00,33.0,27.0,30.35,SSE,167,0.0,0.0,79,-99.99,,,-99.99,,2013-03-13 15:42:00,
2013-03-13 09:52:00,34.0,28.0,30.35,ESE,106,1.0,2.0,77,-99.99,,,-99.99,,2013-03-13 15:52:00,
2013-03-13 10:02:00,34.0,27.0,30.36,SSW,193,0.0,1.0,76,-99.99,,,-99.99,,2013-03-13 16:02:00,
2013-03-13 10:12:00,34.0,27.0,30.36,SSW,193,0.0,1.0,76,-99.99,,,-99.99,,2013-03-13 16:12:00,
2013-03-13 10:22:00,34.0,28.0,30.36,SSE,168,0.0,1.0,78,-99.99,,,-99.99,,2013-03-13 16:22:00,
2013-03-13 10:32:00,34.0,28.0,30.36,SSW,195,1.0,3.0,78,-99.99,,,-99.99,,2013-03-13 16:32:00,
2013-03-13 10:42:00,34.0,28.0,30.36,SSW,195,1.0,3.0,78,-99.99,,,-99.99,,2013-03-13 16:42:00,
2013-03-13 10:52:00,36.0,29.0,30.36,WNW,288,0.0,2.0,75,-99.99,,,-99.99,,2013-03-13 16:52:00,
2013-03-13 11:02:00,39.0,29.0,30.37,SSW,194,1.0,3.0,68,-99.99,,,-99.99,,2013-03-13 17:02:00,
2013-03-13 11:11:00,39.0,29.0,30.37,SSW,194,1.0,3.0,68,-99.99,,,-99.99,,2013-03-13 17:11:00,
2013-03-13 11:22:00,39.0,29.0,30.37,SW,215,1.0,4.0,68,-99.99,,,-99.99,,2013-03-13 17:22:00,
2013-03-13 11:32:00,41.0,30.0,30.39,SSE,152,2.0,5.0,64,-99.99,,,-99.99,,2013-03-13 17:32:00,
2013-03-13 11:42:00,41.0,30.0,30.39,SSE,152,2.0,5.0,64,-99.99,,,-99.99,,2013-03-13 17:42:00,
2013-03-13 11:53:00,44.0,31.0,30.39,SE,135,3.0,6.0,59,-99.99,,,-99.99,,2013-03-13 17:53:00,
2013-03-13 12:02:00,45.0,31.0,30.39,SE,144,2.0,7.0,57,-99.99,,,-99.99,,2013-03-13 18:02:00,
2013-03-13 12:12:00,45.0,31.0,30.39,SE,144,2.0,7.0,57,-99.99,,,-99.99,,2013-03-13 18:12:00,
2013-03-13 12:22:00,46.0,31.0,30.39,ESE,123,2.0,6.0,55,-99.99,,,-99.99,,2013-03-13 18:22:00,
2013-03-13 12:32:00,48.0,31.0,30.39,NE,56,0.0,3.0,52,-99.99,,,-99.99,,2013-03-13 18:32:00,
2013-03-13 12:42:00,48.0,31.0,30.39,NE,56,0.0,3.0,52,-99.99,,,-99.99,,2013-03-13 18:42:00,
2013-03-13 12:52:00,47.0,31.0,30.39,NNE,17,1.0,4.0,53,-99.99,,,-99.99,,2013-03-13 18:52:00,
2013-03-13 13:02:00,47.0,31.0,30.39,NW,315,1.0,5.0,54,-99.99,,,-99.99,,2013-03-13 19:02:00,
2013-03-13 13:12:00,47.0,31.0,30.39,NW,315,1.0,5.0,54,-99.99,,,-99.99,,2013-03-13 19:12:00,
2013-03-13 13:22:00,47.0,31.0,30.39,NNW,330,1.0,4.0,53,-99.99,,,-99.99,,2013-03-13 19:22:00,
2013-03-13 13:32:00,48.0,31.0,30.39,North,1,3.0,6.0,52,-99.99,,,-99.99,,2013-03-13 19:32:00,
2013-03-13 13:42:00,48.0,31.0,30.39,North,1,3.0,6.0,52,-99.99,,,-99.99,,2013-03-13 19:42:00,
2013-03-13 13:53:00,48.0,31.0,30.37,North,358,5.0,8.0,52,-99.99,,,-99.99,,2013-03-13 19:53:00,
2013-03-13 14:02:00,48.0,30.0,30.37,North,354,4.0,8.0,50,-99.99,,,-99.99,,2013-03-13 20:02:00,
2013-03-13 14:11:00,48.0,30.0,30.37,North,354,4.0,8.0,50,-99.99,,,-99.99,,2013-03-13 20:11:00,
2013-03-13 14:22:00,50.0,30.0,30.37,WSW,242,4.0,10.0,46,-99.99,,,-99.99,,2013-03-13 20:22:00,
2013-03-13 14:32:00,50.0,28.0,30.37,SSW,212,4.0,11.0,43,-99.99,,,-99.99,,2013-03-13 20:32:00,
2013-03-13 14:41:00,50.0,28.0,30.37,SSW,212,4.0,11.0,43,-99.99,,,-99.99,,2013-03-13 20:41:00,
2013-03-13 14:52:00,51.0,28.0,30.36,NW,304,3.0,9.0,41,-99.99,,,-99.99,,2013-03-13 20:52:00,
2013-03-13 15:02:00,50.0,28.0,30.35,WSW,247,3.0,8.0,42,-99.99,,,-99.99,,2013-03-13 21:02:00,
2013-03-13 15:11:00,50.0,28.0,30.35,WSW,247,3.0,8.0,42,-99.99,,,-99.99,,2013-03-13 21:11:00,
2013-03-13 15:22:00,51.0,28.0,30.35,West,281,2.0,6.0,41,-99.99,,,-99.99,,2013-03-13 21:22:00,
2013-03-13 15:32:00,52.0,29.0,30.35,NNW,329,3.0,10.0,41,-99.99,,,-99.99,,2013-03-13 21:32:00,
2013-03-13 15:42:00,52.0,29.0,30.35,NNW,329,3.0,10.0,41,-99.99,,,-99.99,,2013-03-13 21:42:00,
2013-03-13 15:52:00,53.0,28.0,30.35,SW,232,2.0,6.0,38,-99.99,,,-99.99,,2013-03-13 21:52:00,
2013-03-13 16:02:00,52.0,28.0,30.35,NNW,327,3.0,7.0,40,-99.99,,,-99.99,,2013-03-13 22:02:00,
2013-03-13 16:12:00,52.0,28.0,30.35,NNW,327,3.0,7.0,40,-99.99,,,-99.99,,2013-03-13 22:12:00,
2013-03-13 16:22:00,51.0,27.0,30.35,NW,311,2.0,6.0,39,-99.99,,,-99.99,,2013-03-13 22:22:00,
2013-03-13 16:32:00,51.0,26.0,30.35,SSE,168,2.0,5.0,38,-99.99,,,-99.99,,2013-03-13 22:32:00,
2013-03-13 16:42:00,51.0,26.0,30.35,SSE,168,2.0,5.0,38,-99.99,,,-99.99,,2013-03-13 22:42:00,
2013-03-13 16:52:00,52.0,27.0,30.35,SW,214,2.0,4.0,37,-99.99,,,-99.99,,2013-03-13 22:52:00,
2013-03-13 17:02:00,51.0,26.0,30.35,NNW,339,2.0,6.0,38,-99.99,,,-99.99,,2013-03-13 23:02:00,
2013-03-13 17:12:00,51.0,26.0,30.35,NNW,339,2.0,6.0,38,-99.99,,,-99.99,,2013-03-13 23:12:00,
2013-03-13 17:22:00,52.0,27.0,30.35,West,266,1.0,3.0,38,-99.99,,,-99.99,,2013-03-13 23:22:00,
2013-03-13 17:32:00,51.0,26.0,30.34,SSW,210,0.0,2.0,38,-99.99,,,-99.99,,2013-03-13 23:32:00,
2013-03-13 17:42:00,51.0,26.0,30.34,SSW,210,0.0,2.0,38,-99.99,,,-99.99,,2013-03-13 23:42:00,
2013-03-13 17:52:00,52.0,25.0,30.34,WNW,300,1.0,7.0,35,-99.99,,,-99.99,,2013-03-13 23:52:00,
2013-03-13 18:02:00,51.0,25.0,30.34,SSW,200,4.0,9.0,36,-99.99,,,-99.99,,2013-03-14 00:02:00,
2013-03-13 18:12:00,51.0,25.0,30.34,SSW,200,4.0,9.0,36,-99.99,,,-99.99,,2013-03-14 00:12:00,
2013-03-13 18:22:00,50.0,26.0,30.34,SSW,196,3.0,6.0,39,-99.99,,,-99.99,,2013-03-14 00:22:00,
2013-03-13 18:32:00,49.0,26.0,30.34,SSW,200,3.0,5.0,40,-99.99,,,-99.99,,2013-03-14 00:32:00,
2013-03-13 18:42:00,49.0,26.0,30.34,SSW,200,3.0,5.0,40,-99.99,,,-99.99,,2013-03-14 00:42:00,
2013-03-13 18:52:00,48.0,26.0,30.34,South,190,3.0,4.0,42,-99.99,,,-99.99,,2013-03-14 00:52:00,
2013-03-13 19:02:00,47.0,26.0,30.32,SSW,199,3.0,6.0,43,-99.99,,,-99.99,,2013-03-14 01:02:00,
2013-03-13 19:12:00,47.0,26.0,30.32,SSW,199,3.0,6.0,43,-99.99,,,-99.99,,2013-03-14 01:12:00,
2013-03-13 19:22:00,47.0,25.0,30.32,South,187,2.0,4.0,42,-99.99,,,-99.99,,2013-03-14 01:22:00,
2013-03-13 19:32:00,47.0,25.0,30.32,South,180,2.0,4.0,41,-99.99,,,-99.99,,2013-03-14 01:32:00,
2013-03-13 19:42:00,47.0,25.0,30.32,South,180,2.0,4.0,41,-99.99,,,-99.99,,2013-03-14 01:42:00,
2013-03-13 19:53:00,45.0,24.0,30.34,South,178,1.0,3.0,44,-99.99,,,-99.99,,2013-03-14 01:53:00,
2013-03-13 20:02:00,45.0,23.0,30.34,South,173,1.0,3.0,41,-99.99,,,-99.99,,2013-03-14 02:02:00,
2013-03-13 20:12:00,45.0,23.0,30.34,South,173,1.0,3.0,41,-99.99,,,-99.99,,2013-03-14 02:12:00,
2013-03-13 20:22:00,46.0,24.0,30.32,South,173,2.0,5.0,41,-99.99,,,-99.99,,2013-03-14 02:22:00,
2013-03-13 20:32:00,44.0,27.0,30.34,SSW,209,1.0,5.0,50,-99.99,,,-99.99,,2013-03-14 02:32:00,
2013-03-13 20:42:00,44.0,27.0,30.34,SSW,209,1.0,5.0,50,-99.99,,,-99.99,,2013-03-14 02:42:00,
2013-03-13 20:52:00,44.0,27.0,30.34,SSW,209,1.0,5.0,50,-99.99,,,-99.99,,2013-03-14 02:52:00,
2013-03-13 21:01:00,43.0,23.0,30.34,South,185,1.0,5.0,45,-99.99,,,-99.99,,2013-03-14 03:01:00,
2013-03-13 21:12:00,43.0,23.0,30.34,South,185,1.0,5.0,45,-99.99,,,-99.99,,2013-03-14 03:12:00,
2013-03-13 21:22:00,43.0,23.0,30.34,SW,220,0.0,5.0,45,-99.99,,,-99.99,,2013-03-14 03:22:00,
2013-03-13 21:32:00,43.0,23.0,30.34,SSE,161,0.0,2.0,44,-99.99,,,-99.99,,2013-03-14 03:32:00,
2013-03-13 21:42:00,43.0,23.0,30.34,SSE,161,0.0,2.0,44,-99.99,,,-99.99,,2013-03-14 03:42:00,
2013-03-13 21:52:00,45.0,22.0,30.34,South,180,1.0,7.0,40,-99.99,,,-99.99,,2013-03-14 03:52:00,
2013-03-13 22:12:00,45.0,23.0,30.34,SSE,167,1.0,3.0,41,-99.99,,,-99.99,,2013-03-14 04:12:00,
2013-03-13 22:22:00,44.0,23.0,30.35,South,175,0.0,4.0,43,-99.99,,,-99.99,,2013-03-14 04:22:00,
2013-03-13 22:32:00,46.0,22.0,30.35,South,181,4.0,7.0,39,-99.99,,,-99.99,,2013-03-14 04:32:00,
2013-03-13 22:42:00,46.0,22.0,30.35,South,181,4.0,7.0,39,-99.99,,,-99.99,,2013-03-14 04:42:00,
2013-03-13 22:52:00,46.0,24.0,30.35,SSW,200,2.0,5.0,41,-99.99,,,-99.99,,2013-03-14 04:52:00,
2013-03-13 23:02:00,43.0,24.0,30.35,South,183,2.0,4.0,47,-99.99,,,-99.99,,2013-03-14 05:02:00,
2013-03-13 23:12:00,43.0,24.0,30.35,South,183,2.0,4.0,47,-99.99,,,-99.99,,2013-03-14 05:12:00,
2013-03-13 23:22:00,43.0,24.0,30.35,South,176,1.0,3.0,46,-99.99,,,-99.99,,2013-03-14 05:22:00,
2013-03-13 23:32:00,42.0,22.0,30.35,SSE,168,0.0,2.0,44,-99.99,,,-99.99,,2013-03-14 05:32:00,
2013-03-13 23:42:00,42.0,22.0,30.35,SSE,168,0.0,2.0,44,-99.99,,,-99.99,,2013-03-14 05:42:00,
2013-03-13 23:53:00,42.0,22.0,30.35,SSE,153,0.0,2.0,44,-99.99,,,-99.99,,2013-03-14 05:53:00,